Weather Service Report


831 
ASUS41 KPHI 010012
RWRPHI

REGIONAL WEATHER ROUNDUP
NATIONAL WEATHER SERVICE MOUNT HOLLY NJ
800 PM EDT TUE JUN 30 2015

NOTE:  "FAIR" INDICATES FEW OR NO CLOUDS BELOW 12,000 FEET WITH NO
SIGNIFICANT WEATHER AND/OR OBSTRUCTIONS TO VISIBILITY.

 * = STATION DOES NOT REPORT PRECIPITATION (E.G. RAIN, SNOW, ETC.) 
        OR FOG.

NJZ015>026-010100-
SOUTHERN NEW JERSEY
  
CITY           SKY/WX    TMP DP  RH WIND       PRES   REMARKS
POMONA         NOT AVBL                                               
RIO GRANDE*    CLOUDY    75  70  83 S15       29.86F                  
MILLVILLE      MOCLDY    77  70  79 S9        29.84S                  
WRIGHTSTOWN    MOCLDY    74  71  92 S5        29.84S                  
MOUNT HOLLY    PTCLDY    73  70  90 SE5       29.84F                  
TRENTON        CLOUDY    75  68  78 S12G20    29.85R                  
6HR MIN TEMP:  75; 6HR MAX TEMP:  84; 6HR PCP:  0.02;                


$$
NJZ001>014-010100-
NORTHERN NEW JERSEY
  
CITY           SKY/WX    TMP DP  RH WIND       PRES   REMARKS
SUSSEX         CLOUDY    68  65  90 N5        29.85F                  
ANDOVER*         N/A     73  64  73 VRB7      29.85S                  
MORRISTOWN     MOCLDY    77  70  78 S9G16     29.87R                  
NEWARK         MOCLDY    74  68  81 SE7       29.88R                  
TETERBORO      MOCLDY    79  66  65 SE10G22   29.86S                  
CALDWELL       MOCLDY    75  66  73 VRB6      29.87S                  
SOMERVILLE     PTCLDY    76  65  68 S9        29.83S                  
ALLAIRE*       CLOUDY    73  66  78 SE10G18   29.88S                  
TOMS RIVER*    MOCLDY    75  70  83 S10G17    29.87F                  

$$
PAZ043-044-047-054-055-060>062-066>071-010100-
EASTERN PENNSYLVANIA
  
CITY           SKY/WX    TMP DP  RH WIND       PRES   REMARKS
PHILADELPHIA   NOT AVBL                                               
NORTH PHILA    MOCLDY    74  67  78 VRB6      29.86R                  
BLUE BELL      PTCLDY    75  68  78 SE6       29.84R                  
DOYLESTOWN     PTCLDY    73  67  81 S9        29.84R                  
QUAKERTOWN*    PTCLDY    73  66  78 SE5       29.85F                  
POTTSTOWN      PTCLDY    75  68  78 VRB5      29.85R                  
LANCASTER      MOCLDY    74  70  87 E6        29.81R                  
COATESVILLE    PTCLDY    73  72  94 SE7       29.85R                  
READING        MOCLDY    73  68  84 SE6       29.81S                  
6HR MIN TEMP:  73; 6HR MAX TEMP:  82; 6HR PCP:  0.06;                

ALLENTOWN      LGT RAIN  76  64  66 SE5       29.83S                  
6HR MIN TEMP:  68; 6HR MAX TEMP:  78; 6HR PCP:  0.48;                

MOUNT POCONO   LGT RAIN  64  61  90 E7        29.90S                  
6HR MIN TEMP:  62; 6HR MAX TEMP:  67; 6HR PCP:  1.94;                

HAZLETON       MOCLDY    66  64  94 SE3       29.89S                  
WILKES BARRE   CLOUDY    71  63  75 E3        29.83S                  

$$
DEZALL-MDZ008-012-015-019-020-010100-
DELAWARE AND EASTERN MARYLAND
  
CITY           SKY/WX    TMP DP  RH WIND       PRES   REMARKS
WILMINGTON     MOCLDY    77  73  87 SE8       29.83R                  
6HR MIN TEMP:  76; 6HR MAX TEMP:  84; 6HR PCP:  0.01;                

DOVER          PTCLDY    80  71  75 S10G20    29.81S                  
GEORGETOWN     MOCLDY    75  71  87 S7        29.85S                  
6HR MIN TEMP:  75; 6HR MAX TEMP:  86; 6HR PCP:  0.01;                

EASTON         MOCLDY    79  68  69 S9        29.87R                  
ABERDEEN       CLOUDY    79  72  78 S9        29.83                   
PATUXENT       MOCLDY    80  70  71 S6        29.82S                  
OCEAN CITY     MOCLDY    75  73  93 S9        29.86S FOG              
WALLOPS ISLAND PTCLDY    78  74  87 S12       29.87R                  
CAMBRIDGE      CLEAR     73  66  78 SE6       29.83S                  
SALISBURY      PTCLDY    79  70  74 SE6       29.85S                  

$$
PAZ001-021-NYZ056-072-MDZ011-DCZ001-010100-
OTHER NEARBY LOCATIONS
  
CITY           SKY/WX    TMP DP  RH WIND       PRES   REMARKS
HARRISBURG     MOCLDY    74  68  81 SE5       29.78F                  
STATE COLLEGE  PTCLDY    68  64  88 CALM      29.82R                  
WILLIAMSPORT   TSTM      73  65  75 VRB3      29.78R                  
BINGHAMTON     LGT RAIN  67  64  90 S14       29.84S                  
NEW YORK CITY  MOCLDY    75  65  70 VRB7      29.92R                  
BALTIMORE      MOCLDY    78  70  76 SE9       29.81R                  
WASHINGTON DC  CLOUDY    85  68  56 S9        29.81R                  

$$

Return to Home page


Western Regional Climate Center, wrcc@dri.edu